Погода в Тикси

Погода в Тикси : погода сейчас, прогноз погоды и архив. Всё, что Вы хотите узнать о погоде в Тикси!

Хотите узнать прогноз погоды в Тикси? Тогда Вам сюда: Погода в Тикси

Поиск расширенной информации на нашем сайте:

Другие новости

Новости СМИ2

Главная страница сайта

Новости сайта

03.07.2017

Напоминаем, что на нашем специализированном сайте Метеоцентр.Азия вы можете получить высокодетализированные автоматические прогнозы погоды по пунктам России, СНГ и мира в авиационном формате (включающие направление и скорость ветра, видимость, явления погоды, количество и форму облачности, нижнюю и верхнюю границу облачности).

Рекомендуем: Запчасти КамАЗ на экспорт: KAMAZ spare parts and details

Погода в Тикси - сегодня

Время (UTC), дата Ветер
(°,м/с) 
Видим.   Явления Облачность Т
(°С)
Тd
(°С)
f(%) Тe
(°С)
Pmin
(гПа)
dP
(гПа)
Po
(мм)
O2
(г/м3)
Тmin Tmax R s Состояние
почвы
09 18.06.18 050 (СВ) 20000 м    ясно 
+3.9 +1.3 83 +2  1008.2  -1.9  756  300           
12 18.06.18 020 (С) 20000 м    ясно 
+6.4 +1.9 73 +5  1008.4  0.2  756  297    +11.2       
15 18.06.18 010 (С) 20000 м    4/0 средняя, верхняя 
[Ac trans|Ci fib]
+5.2 +2.2 81 +4  1007.8  -0.6  755  298           
18 18.06.18 010 (С) 20000 м    6/0 средняя, верхняя 
[Ac trans|Ci fib]
+3 +1.7 91 +1  1006.8  -1  755  300           
21 18.06.18 020 (С) 20000 м    10/0 средняя, верхняя 
[Ac trans|Ci fib]
+3.5 +2 90 +3  1007.7  0.9  755  300           
00 19.06.18 020 (С) 20000 м    6/0 средняя, верхняя 
[Ac trans|Ci fib]
+3.4 +1.9 90 +2  1007.8  0.1  755  300  +2.5        сухая 
03 19.06.18 020 (С) 20000 м    3/0 верхняя 
[Cc]
+4.9 +2.9 87 +3  1007.2  -0.6  755  298           
06 19.06.18 010 (С) 20000 м    1/1 600 м 
[Cu hum]
+7.8 +5.3 84 +6  1006.6  -0.6  754  295           
09 19.06.18 360 (С) 20000 м    1/1 600 м 
[Cu hum]
+8.5 +6.3 86 +7  1006.8  0.2  755  294           
12 19.06.18 040 (СВ) 20000 м    ясно 
+6.5 +5.3 92 +6  1007  0.2  755  296    +9.8       
15 19.06.18 тихо ()   20000 м    ясно 
+9 +6.6 85 +9  1006.9  -0.1  755  293           
18 19.06.18 тихо ()   20000 м    1/0 средняя 
[Ac cast]
+8.4 +7.1 92 +8  1007.1  0.2  755  294           
21 19.06.18 тихо ()   20000 м    ясно 
+15.7 +10.4 71 +17  1007.1  755  286           
00 20.06.18 360 (С) 20000 м    3/0 верхняя 
[Ci fib]
+16.4 +9.9 65 +19  1007.1  755  285  +4.6        сухая 
03 20.06.18 050 (СВ) 20000 м    1/0 верхняя 
[Ci fib]
+12.9 +11 88 +15  1007.5  0.4  755  288           
06 20.06.18 030 (СВ) 20000 м  туман местами  ясно 
+9.1 +7.4 89 +8  1007.2  -0.3  755  293           
09 20.06.18 050 (СВ) 20000 м  туман местами  1/0 верхняя 
[Ci fib]
+7.9 +6.3 90 +7  1007.3  0.1  755  295           
12 20.06.18 тихо ()   20000 м    8/0 средняя, верхняя 
[Ac trans|Ci fib]
+9.4 +6.8 84 +9  1007.6  0.3  755  293    +16.9       
15 20.06.18 010 (С) 20000 м  гроза без осадков  10/6 600 м кучево-дожд., верхняя 
[Cb cap|Cs]
+7.4 +6.5 94 +7  1007.5  -0.1  755  295           
18 20.06.18 070 (В) 20000 м  осадки на расстоянии{гроза, ливн. осадки}  10/6 600 м кучево-дожд., средняя, верхняя 
[Cb cap|Ac trans|Cs]
+8.4 +7.7 95 +8  1007.3  -0.2  755  294           
21 20.06.18 тихо ()   2000 м  дымка  10/3 300 м верхняя 
[St|Cs]
+9.4 +8.6 95 +9  1007.7  0.4  755  293           
06 21.06.18 010 (С) 20000 м  {гроза, ливн. осадки}  10/10 200 м 
[St]
+7.9 +6.8 93 +8  1008.5  0.6  756  295           
09 21.06.18 010 (С) 20000 м    4/0 средняя, верхняя 
[Ac trans|Ci fib]
+7.6 +6 90 +8  1008.6  0.1  756  295           
15 21.06.18 040 (СВ) 0500 м  туман  ?/?  
+6.5 +5.6 94 +7  1009.2  0.5  756  297           
18 21.06.18 тихо ()   0500 м  туман  ?/?  
+8.2 +7.3 94 +8  1009.4  0.2  756  295           
Время (UTC), дата Ветер
(°,м/с) 
Видим.   Явления Облачность Т
(°С)
Тd
(°С)
f(%) Тe
(°С)
Pmin
(гПа)
dP
(гПа)
Po
(мм)
O2
(г/м3)
Тmin Tmax R s Состояние
почвы

Для получения пояснительной информации подведите курсор к названию столбца.

ПОГОДА в Тикси - архив

Всё, что Вы хотите узнать о погоде в Тикси - удобно и подробно!

Выберите нужную дату (начиная с 1 января 2015* года) и нажмите кнопку "Найти".
Будут отображены архивные сводки погоды по пункту Тикси, начиная с указанной даты.


Отображать данные в формате CSV (для использования в таблицах Excel)


Внимание! Наш архив погоды предназначен исключительно для личного некоммерческого использования в познавательных целях. Если Вам необходимы официальные справки о состоянии погоды (для производственных, юридических, коммерческих и т.п. целей), обращайтесь в органы Росгидромета.

*Примечание: данная дата относится к архиву по метеостанциям СССР (Россия, СНГ, Балтия).
Архив по метеостанциям Зарубежной Европы и Азии (кроме Китая) хранится 10 дней, по другим регионам земного шара (Китай, Африка, Америка, Австралия, Океания) - 1 день.

Тикси - район местоположения метеостанции


Название, широта, долгота, высота метеостанции:
Тикси (посёлок) 71.6°ш. 128.9°д. 7 м над ур. моря [Российская Федерация]

Дополнительная информация

В oтличие oт бoльшинства пoгoдных сайтoв мы публикуем пoдрoбную метеoинфoрмацию в детальнoм прoфессиoнальнoм фoрмате.

Характеристики температуры и влажнoсти вoздуха измеряются на высoте 2 м в тени вдали oт зданий и деревьев.
Скoрoсть ветра измеряется на высoте 10 м (на урoвне рoста челoвека скoрoсть ветра ниже в 1.5-2 раза). Если метеoстанция нахoдится в гoрoде или в лесу, тo скoрoсть ветра занижена на 2-4 м/с пo сравнению с oткрытым местoм. Скoрoсть ветра над акватoриями крупных рек и oзёр, а также на вершинах хoлмoв на 2-5 м/с выше, чем в oбычных услoвиях.
Атмoсфернoе давление в разных тoчках местнoсти мoжет значительнo oтличаться oт давления на метеoстанции, в зависимoсти oт услoвий рельефа (при пoдъёме на 10 м давление пoнижается примернo на 1 мм рт.ст.).